Theta_e
290 287 285 285 287 288 288 290 290 288 284 284 283 282 282 281 284 287 288 288 287 286 286 287 287 287 289 290 292 294 295 294 294 293 294 294 294 294 293 293 293 293 294 295 294 294 293 294 293 294 294 293 293 294 295 297 297 298 299 299 299 300 301 305 308 310 311 312 311 310 315 317 318 319 320 321 322 323 323 322 323 323 323 323 322 321
290 286 286 289 290 287 288 289 289 287 286 285 284 283 283 281 283 287 287 289 288 286 281 284 286 287 289 291 293 294 294 293 293 293 293 293 293 293 292 292 293 293 292 291 292 292 291 292 293 293 293 294 293 293 294 295 297 298 298 298 300 299 300 303 307 309 311 312 313 314 315 316 318 318 318 319 320 322 323 323 323 323 322 322 321 320
286 285 289 291 288 285 286 287 287 287 286 286 284 283 282 283 285 288 288 284 285 285 284 284 285 287 289 291 293 293 292 293 294 293 293 293 292 293 292 292 292 290 291 290 291 291 291 292 292 292 293 293 292 292 292 292 293 295 296 298 299 299 299 301 305 307 309 311 312 313 313 316 316 318 320 321 321 321 322 322 322 322 322 322 321 320
283 286 290 291 287 287 284 284 284 284 284 284 282 281 281 284 282 280 282 283 284 284 285 287 284 286 289 291 292 291 289 290 290 290 291 292 292 292 293 291 290 289 289 290 290 290 291 291 291 292 293 294 293 293 293 294 292 293 296 296 298 299 299 300 302 306 308 310 312 313 311 312 314 312 314 312 313 313 314 317 319 321 321 321 321 321
285 285 287 289 288 287 286 283 283 282 283 283 283 282 283 283 284 283 283 284 287 287 283 284 285 285 285 285 285 287 286 287 290 289 289 289 289 289 289 287 288 288 289 289 289 290 290 291 291 291 293 293 293 294 294 294 294 295 294 294 297 298 299 300 302 304 306 307 305 306 304 304 306 306 308 309 309 313 315 317 316 319 321 321 321 321
286 287 285 286 285 286 286 283 283 284 282 281 283 285 285 285 283 283 284 283 281 281 282 284 280 277 279 281 284 288 291 292 293 291 290 290 288 285 285 287 287 288 288 288 289 289 289 289 290 291 292 292 293 295 296 294 295 294 296 294 293 295 297 299 300 303 305 306 308 307 307 305 304 308 305 309 311 312 313 315 318 318 319 319 319 320
287 287 288 286 284 284 284 285 286 286 283 280 282 286 287 286 284 283 283 282 277 276 281 284 276 277 281 286 288 289 289 289 291 289 289 289 289 285 285 286 286 287 288 287 287 287 288 290 289 291 291 292 293 295 295 294 293 293 294 295 294 294 296 298 299 301 304 304 306 308 309 309 308 309 309 311 312 313 315 316 316 317 317 319 319 319
285 286 287 286 283 282 281 282 286 287 283 281 282 284 285 284 283 283 282 281 280 280 282 283 281 278 280 282 288 288 285 286 287 289 290 290 286 285 285 285 285 286 286 287 287 288 288 288 288 290 292 291 293 294 294 294 293 293 294 293 293 293 295 296 297 299 303 303 305 306 307 308 308 308 309 310 311 313 313 313 313 313 314 316 318 319
286 283 284 284 284 282 283 285 286 288 284 281 283 283 282 284 283 282 281 280 279 279 278 279 279 276 277 280 283 284 284 285 286 287 287 288 287 285 285 286 286 286 286 286 287 289 289 289 290 289 290 291 291 292 293 294 294 294 292 291 291 292 292 294 296 299 300 303 304 306 306 306 308 308 309 308 306 306 306 308 309 311 312 313 315 318
283 285 286 287 284 283 285 283 286 287 284 284 282 282 281 280 280 282 279 280 280 278 277 278 280 273 279 280 282 280 282 284 284 286 286 286 285 283 285 285 286 286 286 285 286 287 288 288 288 289 289 289 290 291 290 292 291 291 291 292 292 292 291 292 293 298 299 301 302 303 304 305 306 305 305 303 303 305 304 307 307 309 310 312 313 314
285 289 287 286 285 286 286 285 285 288 287 284 284 285 280 279 278 277 279 281 281 274 279 281 281 280 275 280 280 282 283 283 283 283 283 283 283 284 284 284 285 286 286 286 286 287 288 288 288 287 288 289 290 289 289 290 290 291 290 291 292 291 289 292 294 295 298 300 301 302 303 304 304 304 304 302 302 301 301 307 307 308 310 311 312 312
288 287 286 285 289 287 287 285 284 286 286 286 281 279 280 282 276 274 272 278 277 275 279 278 280 281 274 277 279 282 283 283 285 285 284 284 284 284 284 285 285 284 285 285 286 288 287 289 289 288 289 289 289 290 291 289 291 291 292 290 293 292 290 290 293 295 296 297 299 300 301 302 303 303 303 303 304 303 304 306 307 307 307 308 309 310
284 286 289 287 289 291 287 285 285 285 286 285 283 282 276 271 269 265 269 273 274 274 277 276 280 276 279 283 285 288 289 289 286 286 287 286 285 284 285 285 285 284 284 286 287 286 287 287 288 289 289 288 289 290 290 290 289 289 290 289 293 295 290 290 291 294 294 296 297 300 300 301 302 302 302 303 304 303 304 304 305 304 306 307 307 308
280 282 285 288 287 289 289 283 280 280 284 283 282 281 276 271 268 266 267 266 268 274 277 277 278 276 280 283 289 289 291 292 292 291 289 288 288 286 286 286 285 285 285 286 286 286 286 286 287 287 287 287 288 288 289 289 289 289 290 290 293 295 290 289 292 292 293 294 296 296 299 300 300 301 301 302 303 303 303 304 304 305 306 307 308 309
271 278 280 285 283 288 290 288 286 282 283 284 283 284 280 276 271 267 268 268 271 269 274 275 273 273 276 282 285 286 289 289 288 288 287 287 287 286 284 283 284 285 286 285 285 287 287 288 286 287 287 287 287 288 289 288 288 288 291 291 292 293 293 290 291 291 292 292 292 293 295 297 297 300 300 301 302 301 301 302 303 304 305 306 307 308
280 281 279 288 284 288 288 289 284 283 282 283 282 282 276 278 279 274 273 268 267 268 268 271 275 276 281 283 287 289 289 288 289 287 286 287 287 286 285 286 287 288 288 287 285 287 286 286 286 286 286 287 287 287 287 288 288 289 290 289 291 291 292 291 292 292 291 291 291 291 292 294 295 297 297 298 298 300 300 301 302 303 303 305 305 304
279 276 281 285 285 288 288 287 286 287 277 281 283 281 283 282 283 275 272 270 269 268 273 270 276 280 283 287 289 287 286 288 287 287 285 286 287 285 287 288 287 288 287 287 287 286 287 286 286 286 286 286 287 287 288 288 288 288 289 290 291 291 290 290 290 291 290 290 291 292 291 292 293 294 296 299 298 299 299 301 302 303 303 303 302 304
279 278 283 284 282 285 282 285 287 286 285 283 278 282 283 283 280 277 270 268 265 267 271 271 273 278 278 278 281 281 283 286 284 285 286 285 284 285 288 287 287 288 288 287 286 285 286 285 286 286 286 285 286 286 287 287 287 287 288 288 290 291 292 292 290 291 290 291 291 290 290 290 292 295 295 296 296 297 297 297 298 298 299 302 303 305
284 278 281 281 281 284 283 285 284 286 286 284 282 281 284 275 275 274 269 269 267 266 269 272 273 275 278 282 284 285 286 288 290 286 283 284 283 285 287 287 287 287 287 287 288 287 286 285 286 286 286 286 286 286 286 286 287 287 287 288 287 289 290 290 290 290 291 290 291 292 291 291 291 291 292 294 294 294 296 297 298 299 301 300 300 302
282 278 278 282 282 283 283 283 278 282 284 282 285 283 279 278 271 271 276 269 272 267 268 271 274 278 282 281 280 283 284 286 288 284 284 284 286 287 288 289 289 288 288 288 287 287 286 285 285 285 285 286 286 286 286 286 286 287 287 287 287 287 287 288 289 289 290 290 289 290 290 290 291 291 292 293 293 294 296 297 297 298 296 300 300 301
281 282 274 280 279 282 279 283 280 284 281 281 281 278 280 278 279 277 273 274 274 265 268 271 274 279 285 282 283 285 285 286 286 286 286 286 286 286 287 289 289 289 288 288 287 286 285 285 285 285 284 284 284 284 284 285 285 285 286 286 286 287 287 287 288 288 290 289 289 289 290 291 290 291 290 291 291 293 294 295 295 297 299 296 298 299
278 279 280 279 276 279 281 286 286 286 287 285 284 282 284 280 275 273 274 276 271 275 269 269 274 281 287 284 287 285 284 284 284 285 287 286 286 286 287 287 287 288 287 286 285 284 284 284 284 284 284 283 284 285 285 285 285 285 285 286 286 286 286 286 287 288 290 290 288 288 289 289 288 288 289 290 290 292 293 293 294 296 294 296 298 298
286 280 282 277 281 282 284 283 282 284 284 283 285 283 286 284 283 277 274 277 268 273 271 270 272 280 290 285 285 284 283 283 283 283 285 286 287 285 285 285 286 285 286 286 285 284 283 283 283 283 283 283 283 284 284 284 285 285 285 285 285 285 285 286 286 288 289 288 288 288 288 289 290 290 290 290 290 290 292 292 292 292 295 296 296 296
292 281 277 281 284 281 282 281 282 281 283 283 282 281 282 282 284 283 282 275 276 273 275 274 274 280 290 283 282 284 283 281 280 280 286 286 285 284 283 283 285 285 285 284 283 283 283 282 282 282 283 283 283 283 283 284 284 284 284 284 284 284 285 285 285 287 288 288 287 287 288 288 288 289 289 290 289 289 289 290 291 292 294 296 294 296
281 282 283 278 274 273 277 280 279 277 279 281 283 285 284 285 284 282 277 276 276 277 280 276 273 280 288 288 282 283 286 285 285 283 280 283 284 283 283 283 284 285 285 284 284 283 283 282 282 282 281 281 282 282 282 283 283 283 284 284 284 284 285 285 285 285 286 286 286 286 286 287 288 288 288 288 288 287 288 288 289 290 293 293 294 295
286 284 283 276 274 273 273 274 276 278 279 280 278 282 284 283 282 280 278 280 277 281 282 278 278 285 289 290 285 283 282 284 283 282 280 281 283 284 284 283 283 283 285 284 283 282 283 282 281 280 280 280 280 280 281 281 282 283 283 283 283 283 284 285 285 285 286 286 285 286 286 286 287 287 287 287 288 288 288 288 288 289 289 291 294 292
279 282 286 284 281 278 281 283 283 281 280 278 280 284 283 284 284 284 283 281 278 282 281 282 283 283 285 288 289 289 284 284 286 285 285 285 284 283 282 283 283 284 284 283 282 282 281 280 280 280 279 279 279 279 280 280 281 282 282 282 283 284 284 284 285 285 285 285 285 285 285 286 286 287 287 287 287 287 287 287 287 287 289 289 290 291
283 281 283 284 284 285 286 285 286 283 280 282 281 282 284 284 284 282 281 279 285 282 277 284 285 284 285 287 289 289 290 290 288 286 287 288 289 288 284 283 286 283 283 281 281 281 281 280 279 279 279 278 278 278 279 279 280 281 282 282 282 283 284 284 284 285 285 285 285 285 285 286 286 287 287 287 286 287 288 289 288 288 288 287 290 290
283 280 284 284 283 285 285 285 286 286 284 283 283 283 282 284 283 281 282 285 285 281 279 285 286 284 286 288 290 291 292 292 291 290 289 291 291 286 283 284 283 283 283 282 282 281 280 280 279 278 278 277 277 277 277 278 279 281 282 282 282 283 284 285 285 284 285 285 285 285 286 286 286 287 287 287 287 287 287 288 288 289 289 288 287 288
284 281 284 284 282 283 284 285 285 284 284 284 284 283 283 283 283 283 283 285 285 284 286 286 286 286 288 289 291 292 294 294 291 289 289 288 288 287 286 285 285 284 284 284 283 281 279 278 277 277 277 276 276 276 277 278 279 280 281 281 282 283 284 284 284 284 284 284 285 286 286 287 287 287 287 286 286 286 287 287 287 288 288 288 287 288
283 278 285 283 280 280 283 285 285 284 283 282 284 284 284 284 283 284 284 284 285 284 285 285 284 285 290 292 292 294 294 288 286 287 289 289 289 288 287 286 285 285 284 283 281 280 278 277 276 276 276 275 275 276 276 277 279 280 281 281 282 283 283 284 284 284 284 284 285 285 286 286 287 287 287 287 287 287 287 287 287 287 287 287 286 287
283 278 284 280 277 276 281 281 282 283 283 282 282 283 283 283 281 283 282 284 284 282 284 284 282 283 289 292 293 293 292 291 290 289 287 288 288 287 287 287 286 285 284 282 281 279 277 276 275 275 275 275 275 275 276 276 278 279 280 281 282 282 283 283 283 283 283 283 284 284 285 285 286 286 286 287 287 287 287 287 287 287 287 287 286 286
279 278 276 276 273 273 278 279 278 279 278 275 278 283 284 284 285 286 286 286 286 286 283 281 282 288 290 291 290 290 291 291 292 292 290 286 287 288 287 287 288 286 285 282 280 279 277 275 275 274 274 274 274 275 275 276 277 278 279 279 282 282 282 282 282 282 282 282 283 283 283 284 285 285 286 286 286 287 287 287 287 287 286 286 286 286
279 278 276 278 273 272 277 277 277 274 268 270 285 288 287 284 285 283 283 285 287 287 285 288 288 289 289 289 289 289 290 291 292 293 292 291 289 288 287 288 288 287 284 281 279 277 275 275 274 274 274 274 274 275 275 276 276 277 278 279 280 281 282 282 282 281 281 281 282 282 282 283 283 284 285 285 286 286 286 286 286 287 286 286 286 286
277 277 275 277 273 271 276 276 272 267 269 282 283 286 287 287 285 285 285 287 287 287 287 287 287 288 289 290 290 290 291 292 291 289 288 289 290 291 291 289 287 284 281 279 276 275 274 274 273 273 273 273 274 274 275 275 275 276 277 278 278 279 280 280 280 280 281 280 281 281 281 282 282 283 284 284 285 286 286 286 286 286 287 286 286 285
276 276 276 275 275 275 273 272 267 266 280 280 280 283 285 285 284 284 282 285 287 282 277 278 279 279 278 279 281 284 284 287 286 284 285 284 279 280 282 283 282 280 277 276 275 274 273 273 273 272 272 273 273 273 273 274 275 275 275 276 276 276 277 277 277 277 278 279 279 280 280 280 281 282 282 283 284 284 285 285 285 285 286 286 286 286
279 278 277 272 277 269 271 272 271 277 278 279 280 280 277 276 275 277 276 281 268 268 269 269 270 271 271 272 273 274 275 281 285 288 281 275 275 275 276 275 275 274 274 274 273 272 273 273 273 272 272 272 271 271 272 273 274 274 274 274 274 274 274 274 274 274 275 277 278 279 279 279 280 280 281 282 282 283 283 284 284 285 286 286 286 286
280 276 277 274 271 277 270 269 270 270 267 273 281 274 275 272 273 273 274 275 270 266 269 269 267 269 269 269 270 271 275 279 281 285 273 272 273 273 273 273 273 273 273 272 272 272 272 271 271 271 271 270 270 271 271 273 272 272 271 271 271 272 272 272 272 272 273 274 277 278 278 278 279 279 280 280 281 281 282 283 284 284 285 285 285 285
279 280 278 275 272 274 272 268 268 267 270 272 267 272 275 273 273 272 271 271 269 265 268 269 268 268 267 267 268 271 275 277 280 277 268 271 270 271 270 270 271 271 271 271 271 271 271 270 270 270 269 269 268 269 270 272 271 270 269 269 269 269 269 269 270 270 271 272 276 277 278 278 278 278 279 279 279 280 281 282 282 284 284 285 285 284
274 275 276 272 271 273 271 269 267 272 270 272 271 272 273 274 271 273 268 270 267 265 268 267 266 267 267 268 270 271 270 272 275 267 270 269 270 269 268 268 268 268 268 270 271 270 270 270 269 268 267 267 267 268 269 271 270 269 268 268 268 267 267 267 268 269 271 272 275 276 277 277 277 278 278 278 278 279 280 281 281 282 283 284 284 284
269 272 274 270 271 272 273 270 273 272 271 270 270 272 274 275 271 267 266 270 268 267 269 268 267 268 268 268 269 267 269 268 267 269 268 268 268 268 268 268 267 267 267 267 269 270 269 268 268 267 267 267 267 268 269 270 269 268 268 267 266 266 266 267 268 269 270 272 274 275 276 277 276 276 277 277 277 279 279 279 280 281 281 282 283 283
266 269 271 273 270 269 271 269 269 273 267 269 270 272 274 274 267 269 270 269 268 268 269 268 267 267 268 268 269 268 269 269 269 269 268 267 267 267 267 267 267 267 267 267 268 268 267 268 267 267 266 267 266 267 267 268 267 267 266 266 265 265 266 267 267 268 269 271 272 273 274 276 276 276 276 277 277 277 277 278 279 280 280 281 281 281
264 268 265 269 270 267 265 267 267 264 269 268 268 274 275 271 270 268 266 269 271 268 268 268 268 267 268 266 269 269 269 269 268 268 268 267 267 266 266 266 265 265 265 265 265 266 266 266 266 265 265 266 266 266 266 266 266 266 266 264 265 265 266 266 267 267 269 270 270 271 273 275 275 275 275 276 276 276 276 276 277 278 279 279 280 280
270 265 266 266 269 263 266 264 264 269 267 269 271 269 269 267 268 267 268 266 270 269 267 267 267 268 267 267 267 268 268 268 268 268 268 267 267 267 267 266 266 265 265 265 265 265 265 265 265 265 266 265 265 265 265 265 265 265 265 264 265 265 265 265 266 267 268 268 269 270 272 274 274 274 275 275 275 275 275 275 276 277 277 277 278 278
272 266 270 266 273 267 265 270 270 267 268 269 268 267 267 268 268 267 267 267 267 267 268 266 266 267 267 266 267 268 267 268 267 268 266 266 266 266 265 265 265 265 264 264 263 264 264 264 264 264 265 265 265 265 264 265 264 264 263 264 265 264 264 264 265 266 266 267 268 269 271 272 273 273 274 274 274 273 274 273 274 274 276 276 276 276
272 270 273 272 269 273 269 267 270 268 268 268 268 267 265 266 267 267 266 266 266 266 267 265 266 265 266 266 265 266 266 266 266 267 266 266 265 266 266 265 265 265 264 264 263 264 264 264 264 263 264 264 265 264 264 264 264 262 263 264 264 263 263 263 264 265 265 266 267 268 270 270 271 271 272 273 273 273 273 273 273 273 274 274 274 275
271 272 271 269 272 270 265 268 266 266 266 265 266 266 266 266 265 267 265 265 265 265 266 266 266 265 265 265 264 264 265 265 264 265 265 265 264 264 264 264 264 264 264 263 263 263 263 263 262 262 262 263 264 263 263 263 263 262 263 262 262 262 262 262 263 264 265 265 267 268 269 269 269 270 271 272 272 272 272 273 273 272 273 272 272 273
268 273 268 269 268 268 269 265 265 267 265 265 264 264 263 264 264 266 265 265 265 265 265 265 266 264 265 263 264 263 263 264 263 263 263 263 263 263 263 263 263 263 264 264 263 263 262 262 261 261 261 262 263 263 263 262 262 262 262 262 261 261 260 261 262 263 264 265 266 267 268 268 269 269 269 270 270 270 271 271 272 272 272 272 272 272
266 268 262 267 263 266 264 263 263 265 263 263 264 264 264 263 264 263 265 264 264 264 264 264 265 264 263 262 263 262 262 262 262 262 262 262 262 262 262 262 262 262 263 262 262 261 261 261 260 261 261 261 262 262 262 261 262 262 261 261 261 260 259 259 261 262 263 264 265 266 266 267 267 267 268 268 268 269 270 270 270 271 272 273 274 273
263 264 263 263 263 264 264 258 260 259 261 261 261 261 261 263 263 263 263 263 263 262 263 262 263 264 263 263 262 261 260 261 261 262 261 262 261 261 261 261 261 261 261 262 261 261 260 261 260 260 260 261 261 261 261 261 261 262 261 261 260 259 258 259 260 261 262 263 263 265 265 265 265 266 266 266 266 267 268 270 271 271 271 271 274 274
260 261 257 259 258 260 257 254 259 260 260 261 261 260 260 261 261 261 261 262 262 262 263 262 261 262 262 262 263 261 260 260 260 261 260 261 261 261 261 261 260 260 260 261 260 259 259 259 260 260 259 260 261 261 261 261 261 261 261 261 260 259 258 258 259 260 261 261 262 264 264 264 264 265 265 265 265 265 266 266 267 269 270 271 271 272
Wind_Speed
1 6 7 11 15 10 7 14 15 6 2 1 2 4 8 7 12 15 15 4 0 7 9 16 15 15 19 23 23 22 18 18 19 15 14 13 12 11 10 10 9 8 11 6 7 9 8 8 6 6 5 5 4 3 4 5 6 8 9 7 10 9 7 7 8 7 8 8 6 4 7 9 8 10 10 10 9 9 10 11 11 11 10 11 11 11
3 7 12 14 13 3 10 10 7 7 4 7 8 7 11 3 15 13 11 6 4 5 4 5 15 18 20 25 23 19 17 22 19 14 13 14 10 9 9 11 10 9 6 7 9 8 5 6 7 6 5 4 3 3 2 5 8 7 7 9 10 6 7 9 10 10 10 10 10 11 11 10 9 8 8 8 8 10 9 11 10 9 7 7 8 8
6 13 11 15 4 2 2 5 7 8 10 8 9 6 6 11 12 15 12 2 0 2 9 3 15 19 22 26 25 18 16 16 13 11 13 9 10 10 8 8 9 8 10 7 8 8 5 6 8 6 5 4 2 4 4 4 4 5 6 8 8 7 8 9 10 9 9 9 9 9 8 11 8 8 10 10 11 10 10 9 9 8 8 9 9 10
7 9 15 11 3 4 1 2 5 5 5 8 5 3 12 5 2 9 2 2 2 2 12 14 17 17 17 22 18 13 6 6 6 6 9 9 10 11 10 6 7 8 9 9 8 9 9 6 6 6 6 6 6 4 4 3 4 4 5 6 7 8 8 9 9 10 11 10 10 8 5 5 5 5 5 3 1 4 4 6 8 9 10 11 11 12
13 1 3 5 6 5 6 4 4 5 10 6 8 7 10 11 10 8 6 8 9 6 2 9 14 12 7 10 7 6 3 4 7 5 6 7 8 7 7 7 6 9 7 8 8 8 7 8 7 6 7 6 5 4 4 4 3 3 5 5 6 8 9 9 10 12 9 6 4 4 2 3 2 2 3 5 5 7 8 8 8 11 12 13 12 11
12 4 3 4 4 5 6 6 9 8 12 1 7 13 16 10 8 8 8 8 7 8 3 8 11 5 5 5 10 8 9 16 13 12 12 7 7 4 5 7 5 5 6 7 7 6 6 7 8 6 6 5 5 5 4 3 4 4 6 5 5 6 6 9 10 11 9 9 9 7 7 6 6 8 6 9 11 10 10 12 11 10 9 7 8 8
6 3 4 5 5 4 6 9 8 10 8 2 7 14 15 12 10 7 10 4 4 2 1 6 2 16 2 8 12 12 10 16 13 11 13 9 7 5 6 4 4 5 6 4 5 5 5 6 5 6 5 4 5 6 4 4 4 4 5 5 5 5 6 7 7 8 9 8 8 11 12 12 12 12 9 8 8 10 10 10 11 11 10 11 12 11
3 5 8 4 4 6 3 10 7 11 5 7 2 8 9 7 6 7 5 6 7 2 5 2 5 6 20 4 13 13 9 11 11 11 11 9 5 6 5 5 4 5 4 4 5 6 5 5 4 6 7 6 6 6 6 5 4 4 5 4 5 5 5 5 5 6 9 10 10 11 10 10 11 11 11 10 11 9 8 8 8 7 8 10 11 11
7 3 5 5 5 6 11 7 8 14 8 5 0 4 3 7 7 3 3 5 3 5 9 5 3 1 10 5 5 7 11 6 8 9 8 9 6 6 5 6 5 4 4 3 5 5 6 5 6 5 7 6 5 4 4 4 4 5 5 4 3 4 4 4 5 6 8 9 10 11 10 10 9 10 11 8 5 4 3 5 5 6 7 8 9 10
1 3 7 9 8 11 5 3 10 12 7 4 3 4 4 4 2 3 2 1 3 2 11 6 5 3 17 2 3 2 2 8 6 7 8 7 6 4 4 5 5 4 4 4 5 6 7 6 6 5 6 7 5 4 3 3 3 4 3 4 3 1 1 3 4 7 7 8 7 8 8 10 10 8 8 5 7 7 5 7 5 6 6 7 8 9
0 2 5 5 9 4 4 3 6 10 7 3 4 1 2 4 2 2 3 1 2 4 15 8 13 9 10 3 6 4 3 2 3 5 4 5 4 5 6 7 5 4 4 4 5 5 6 6 7 5 5 6 5 4 3 2 2 4 3 3 4 3 2 0 1 3 6 7 7 8 9 11 11 9 8 7 6 5 5 8 8 8 8 6 8 7
7 3 2 4 3 2 3 2 2 2 1 2 1 2 1 3 4 2 3 1 2 9 1 2 7 10 10 6 7 5 5 4 3 5 5 4 5 7 5 4 5 5 5 5 5 6 5 8 5 4 6 6 7 6 5 4 3 3 4 4 2 3 3 2 0 2 3 4 6 6 7 9 10 8 8 10 10 8 9 9 10 8 6 6 6 6
9 14 9 3 4 10 3 2 0 2 2 4 3 2 3 4 6 4 3 1 6 9 2 2 6 1 18 12 11 20 18 12 7 9 9 6 5 6 6 8 6 4 4 5 5 4 5 4 5 6 6 6 6 6 5 5 4 3 2 3 3 2 2 1 1 1 3 4 5 6 6 7 7 7 7 8 9 8 9 8 7 5 8 6 7 7
8 2 6 10 2 6 8 7 2 1 7 7 7 6 6 1 1 4 5 2 7 8 3 1 3 7 4 7 15 21 22 16 13 10 9 9 10 7 7 6 6 6 5 5 5 5 5 4 4 5 5 5 5 6 6 5 4 3 2 2 1 3 2 2 1 2 1 3 4 4 5 6 6 7 7 7 8 7 7 7 8 8 8 9 10 9
2 5 6 11 6 7 13 15 11 6 10 12 3 9 7 7 6 4 6 6 7 4 2 2 3 8 3 4 1 6 8 8 7 7 5 5 7 6 6 5 6 7 7 5 4 5 5 5 4 5 5 5 5 6 6 5 4 4 3 2 1 4 4 2 1 0 2 3 3 3 3 4 4 6 6 7 6 5 5 6 7 7 7 8 8 9
11 9 4 9 0 10 14 9 8 6 4 3 3 4 2 9 5 5 3 3 2 3 4 2 7 4 6 4 10 9 12 12 10 7 6 11 7 7 7 8 8 7 7 6 5 5 5 4 4 4 4 5 5 5 5 5 5 5 4 4 2 2 3 4 2 0 1 2 2 2 3 4 4 4 4 4 5 6 6 6 7 7 7 7 6 5
0 6 1 4 4 10 10 6 5 9 5 5 8 9 7 2 6 2 3 1 2 1 12 3 7 9 7 12 12 9 5 9 7 8 8 11 10 6 9 9 7 7 6 7 5 4 5 6 4 3 5 5 6 6 6 6 5 5 6 5 6 4 3 3 3 3 1 1 1 2 3 4 4 4 5 6 6 6 6 7 7 7 8 7 5 5
6 6 0 5 3 4 0 2 4 2 5 7 4 6 3 2 4 4 4 3 1 4 8 2 5 8 4 13 2 2 5 8 5 9 8 6 3 6 9 6 6 8 8 6 5 4 5 4 5 5 4 4 5 6 7 7 5 4 4 5 6 6 7 6 4 4 3 1 2 2 3 3 4 5 5 5 5 5 5 5 5 4 5 6 7 8
2 6 4 3 2 1 1 4 1 0 0 7 7 3 7 4 4 1 5 4 4 5 6 4 4 6 8 14 5 8 7 8 13 4 2 6 5 8 8 8 8 9 8 7 7 5 3 3 4 4 4 4 4 5 5 6 6 5 5 5 4 5 5 6 6 5 5 3 3 2 3 3 4 4 4 4 5 4 5 6 5 6 7 5 5 6
2 3 4 0 3 1 1 2 8 7 2 0 0 1 0 3 2 5 7 3 3 6 2 6 4 12 9 6 3 5 8 8 10 7 5 7 8 8 8 8 10 11 9 7 7 5 2 3 3 3 4 5 6 6 6 6 6 8 7 6 7 4 4 6 7 7 7 5 3 3 2 3 3 3 4 4 4 5 5 6 5 6 5 7 5 6
6 0 8 1 3 1 4 6 8 13 12 5 2 3 0 1 3 4 2 4 5 4 6 6 12 13 12 6 7 8 7 7 6 8 6 6 8 7 7 8 9 10 9 8 6 4 3 3 2 2 3 3 3 3 3 4 5 5 5 7 7 7 8 7 6 6 7 6 5 3 3 3 3 4 3 3 4 4 5 5 4 5 6 4 5 5
1 2 11 2 1 6 8 6 11 15 16 13 14 14 17 11 4 5 12 2 3 7 7 7 16 12 11 6 7 7 7 5 7 5 7 7 7 7 7 7 7 9 7 5 4 2 2 1 2 2 3 3 4 6 7 6 5 5 6 5 6 6 6 7 8 7 7 6 5 4 4 3 3 3 2 3 4 4 4 4 5 5 3 5 6 6
9 1 5 8 10 12 10 4 1 4 4 4 9 10 12 10 7 7 13 11 2 3 1 3 6 18 15 9 6 6 4 6 5 5 6 7 9 6 4 6 6 5 5 3 2 2 2 0 0 1 3 3 4 4 5 6 7 7 6 6 5 5 7 5 6 6 5 4 4 6 5 4 3 2 1 2 3 4 4 5 5 4 5 6 5 5
5 3 3 11 8 5 2 2 0 0 4 5 5 1 5 12 18 17 11 3 6 4 6 7 11 14 17 4 5 6 5 4 4 4 8 9 7 6 5 5 6 6 6 5 2 1 1 1 0 2 4 5 6 6 6 6 6 6 6 7 7 7 8 7 7 7 6 5 6 6 6 7 7 6 3 1 2 3 4 3 4 4 5 6 4 6
2 5 8 10 6 5 3 1 3 1 1 4 7 11 12 11 10 5 4 1 4 9 11 9 17 12 15 6 2 4 8 9 9 6 5 7 8 6 5 5 6 6 5 5 5 4 1 2 1 3 3 3 4 4 4 6 6 6 7 7 9 8 8 7 7 7 6 6 6 6 7 7 7 7 7 7 5 3 2 3 3 3 5 4 5 6
12 6 9 12 12 14 14 13 14 11 12 5 1 5 10 13 13 5 10 7 14 8 15 13 12 11 17 15 5 2 5 6 6 7 4 7 8 7 5 4 5 5 5 2 2 2 2 1 0 2 3 2 3 3 4 4 5 5 6 7 7 8 8 8 8 8 7 8 7 7 8 7 7 8 8 8 7 7 5 3 2 3 4 3 4 4
3 3 13 16 16 17 17 14 2 7 6 8 10 16 14 13 15 14 9 12 16 14 17 16 14 16 19 20 22 16 4 9 9 6 5 5 5 6 5 5 4 3 3 4 4 2 0 2 1 1 2 2 2 3 3 4 5 6 7 7 8 7 7 7 7 7 7 7 7 7 7 8 8 8 7 7 7 6 6 6 3 1 3 2 2 4
2 7 10 14 21 19 15 14 9 6 6 10 15 16 19 18 17 19 16 19 15 14 19 13 18 20 20 18 21 23 18 15 12 7 6 7 8 6 3 1 1 1 2 2 2 3 4 3 1 1 2 3 3 3 4 4 4 6 6 7 7 7 7 6 7 7 7 7 7 8 8 8 7 7 7 6 6 6 6 6 6 4 2 1 2 3
5 8 9 10 19 15 15 17 19 19 13 9 13 14 17 18 17 20 23 24 21 19 21 14 19 21 17 16 21 24 25 25 11 12 9 12 11 4 2 3 4 5 5 6 7 6 6 6 2 0 2 3 3 5 5 5 5 5 6 6 7 7 7 6 6 6 6 7 7 7 7 7 7 7 7 7 7 7 7 7 6 6 5 4 3 1
3 8 9 13 19 17 18 16 15 18 18 18 17 13 15 16 21 22 23 24 27 26 21 19 19 23 17 18 21 26 26 22 7 5 6 8 7 8 8 9 10 10 10 10 9 8 6 4 2 1 2 4 4 5 5 5 5 6 7 7 7 7 7 6 5 6 6 7 7 7 7 6 6 7 7 7 8 8 7 6 6 6 6 6 5 4
5 7 10 14 14 14 13 14 15 18 17 21 21 19 16 14 18 22 23 23 23 25 23 22 22 23 16 18 22 23 22 5 2 4 10 9 10 11 11 12 11 10 11 8 6 6 5 3 2 2 3 3 4 4 4 4 4 5 5 6 7 7 6 6 6 6 7 7 7 6 6 5 6 5 7 6 6 6 7 7 6 6 6 6 6 6
5 6 6 8 11 12 11 11 14 14 19 21 21 20 22 22 22 17 18 16 17 21 19 23 22 20 17 22 21 19 16 17 18 12 8 8 8 8 11 12 11 10 9 10 9 6 6 4 3 3 3 3 3 4 4 4 4 5 5 5 6 6 5 5 6 6 7 7 7 7 7 7 6 6 6 6 6 6 6 5 6 7 7 7 8 7
6 8 8 9 15 17 14 19 17 16 15 15 16 18 25 27 25 23 21 19 21 21 22 21 20 17 19 15 16 18 19 22 22 19 13 7 9 10 11 12 12 10 9 10 10 8 5 4 4 4 3 3 4 4 4 3 4 5 5 5 5 4 4 5 6 6 7 7 7 7 7 7 7 6 6 6 5 5 5 5 6 7 8 8 6 5
5 9 11 8 13 13 14 21 16 15 16 9 6 8 16 22 22 23 25 22 23 19 20 18 19 13 12 13 17 20 21 22 20 18 11 10 10 11 11 12 11 9 7 6 5 5 6 5 4 4 4 4 3 4 3 3 4 4 5 5 5 5 5 4 5 6 7 8 8 7 7 7 7 7 6 6 5 5 6 6 6 6 5 5 6 8
12 10 11 5 12 9 10 15 15 18 12 5 5 4 2 6 8 17 20 20 22 20 22 19 20 18 19 16 16 16 17 18 14 10 9 10 11 11 12 11 10 6 6 7 7 6 6 6 6 5 5 4 4 4 4 5 5 5 6 6 6 6 5 5 5 7 7 8 8 8 8 8 7 8 7 7 6 5 6 6 6 6 6 6 7 7
10 13 8 9 7 10 12 12 15 19 5 5 4 10 16 15 17 13 17 13 13 13 12 9 12 14 15 16 17 17 17 18 10 5 9 6 3 3 6 7 1 2 6 5 8 7 6 6 6 5 5 4 4 5 5 5 5 6 6 6 6 6 5 5 6 8 7 7 8 8 8 8 7 7 8 7 6 6 7 7 6 6 5 5 5 5
18 12 11 12 9 15 11 15 22 15 19 23 15 12 5 8 4 1 10 6 13 9 13 9 12 13 14 15 12 14 17 16 10 11 10 17 13 11 8 8 8 8 8 8 8 8 8 7 7 6 5 5 5 5 5 5 5 6 6 6 6 6 6 6 7 8 8 7 8 8 8 8 8 7 7 8 7 6 7 7 7 6 5 5 5 5
15 16 10 14 10 12 15 15 13 14 20 15 4 7 3 1 6 5 1 6 10 13 9 11 12 13 14 15 14 16 12 7 9 5 16 17 15 12 12 13 12 11 10 9 9 9 8 7 7 7 7 6 7 7 6 6 6 6 7 6 6 6 6 6 7 7 7 8 8 8 8 8 8 7 7 7 8 8 7 6 6 6 5 5 5 5
15 16 15 16 12 11 14 15 13 14 9 6 6 13 7 5 4 6 3 5 4 10 10 7 11 9 9 12 16 14 7 5 11 5 15 16 15 14 11 12 12 11 11 10 9 8 8 8 8 8 8 8 9 9 8 6 7 6 6 6 6 6 6 7 7 7 7 8 8 7 8 7 8 7 7 6 6 7 8 7 6 6 5 6 5 5
12 10 11 14 13 11 14 14 14 9 6 4 4 8 11 3 4 5 10 10 5 9 8 8 7 11 10 10 10 9 9 5 7 9 13 12 11 12 13 12 13 12 12 10 9 9 8 8 9 10 11 10 10 9 8 6 6 7 6 6 6 6 6 7 7 7 7 7 7 6 7 7 8 8 7 7 6 6 7 7 6 6 6 6 5 5
2 4 6 11 11 15 19 15 11 5 2 1 7 10 12 6 2 3 9 5 8 6 8 7 7 9 10 9 8 5 5 3 7 10 11 13 13 13 13 12 11 12 12 12 11 10 9 9 10 10 10 9 9 9 9 7 6 6 6 6 6 6 6 6 6 6 7 7 6 6 6 6 7 8 7 6 5 5 6 6 7 7 7 6 6 6
4 4 4 3 9 9 8 11 11 6 1 1 7 3 6 3 4 4 3 2 6 8 8 8 8 9 10 9 6 4 3 4 6 8 11 12 12 12 12 12 13 12 12 11 13 12 9 9 9 10 10 10 10 9 9 8 7 7 7 7 8 8 7 7 6 5 5 6 6 6 6 5 7 6 6 6 6 5 6 5 6 6 6 6 7 7
5 5 5 8 3 1 2 8 8 10 1 8 13 2 2 1 3 4 5 5 4 7 8 9 7 9 10 9 8 6 5 4 5 5 5 6 7 9 10 11 12 12 12 13 12 12 10 8 8 9 9 8 9 9 9 9 8 8 7 8 9 9 8 7 6 6 5 5 6 6 6 5 7 6 6 7 7 6 6 6 6 6 6 6 6 7
4 1 3 4 3 4 6 5 3 2 4 11 7 5 5 4 5 7 7 6 7 6 8 7 7 9 10 10 11 9 8 7 6 7 7 8 9 8 7 7 8 9 9 10 10 10 9 7 7 7 8 8 8 8 8 8 8 7 8 9 9 9 8 7 7 6 5 5 5 5 6 6 6 6 6 6 6 6 6 6 5 4 5 6 5 4
2 3 2 1 4 2 5 5 4 4 7 7 8 7 6 6 7 7 6 5 6 6 8 6 8 9 10 11 11 9 7 9 8 8 8 9 10 11 11 11 10 9 9 9 10 10 9 8 8 7 7 7 8 7 8 7 7 7 8 8 9 10 9 8 7 6 5 5 5 5 5 6 6 6 6 7 7 7 6 6 6 5 6 6 5 6
2 4 5 0 5 4 5 6 6 6 6 6 7 7 6 6 6 5 5 5 5 5 6 6 7 8 9 9 8 9 8 10 11 10 8 9 9 9 10 10 10 10 10 9 9 10 8 7 7 8 7 7 8 7 7 7 7 7 7 8 8 9 9 9 7 6 6 5 5 6 5 6 6 7 6 7 7 7 6 6 6 7 6 6 6 5
4 4 3 1 3 5 5 6 6 3 5 5 4 4 5 5 4 5 3 4 4 5 5 5 5 5 7 6 6 7 9 10 10 11 10 9 10 10 10 10 10 11 11 11 11 11 9 8 7 8 8 7 8 7 7 6 6 5 5 6 7 9 9 10 8 6 5 6 5 5 5 5 6 6 6 6 6 6 6 6 5 5 6 6 6 6
2 4 5 4 4 3 5 4 4 4 5 5 3 3 4 5 5 4 3 4 4 4 5 5 5 3 4 5 6 5 6 7 8 8 8 8 8 9 9 10 11 10 10 10 10 10 9 9 9 8 8 7 7 7 7 6 5 5 5 5 6 7 8 8 8 7 6 6 5 4 5 5 7 6 4 5 5 5 5 5 6 5 5 5 5 4
3 7 4 1 1 4 2 1 5 3 4 3 5 4 4 4 5 6 5 6 6 6 6 6 6 5 4 4 6 6 6 6 6 6 5 5 5 6 8 9 9 9 9 10 9 9 9 9 9 9 8 7 7 7 7 6 6 5 6 6 7 6 7 7 8 7 7 6 5 5 5 5 5 5 5 5 5 4 5 5 6 6 5 4 4 5
1 5 0 4 7 8 7 2 5 4 6 1 5 3 3 5 5 5 5 5 7 7 7 8 7 6 5 4 5 5 6 6 6 6 6 5 4 5 6 7 7 8 9 8 7 8 9 9 9 10 9 7 7 7 7 7 6 5 6 6 6 7 6 7 6 6 6 5 5 5 5 5 5 5 5 5 5 5 5 7 10 8 6 6 9 11
2 2 3 4 3 5 1 3 2 2 6 8 2 1 1 2 2 4 4 5 6 6 7 7 8 8 6 6 4 4 6 6 7 7 6 5 6 6 6 6 7 7 8 9 9 9 9 9 9 9 9 9 8 8 8 8 7 6 6 6 6 6 6 6 5 5 5 5 5 7 6 5 5 5 5 5 5 5 5 5 5 9 12 12 11 12
Wind_Direction
111 173 183 208 230 214 199 207 217 243 16 8 286 258 255 266 277 272 279 252 345 304 242 258 269 275 276 278 287 291 299 284 274 277 280 274 276 277 275 273 272 272 267 288 294 290 289 295 300 303 299 286 289 253 222 219 222 217 215 194 214 207 191 185 186 183 182 187 195 214 211 210 199 200 200 201 202 202 203 204 203 200 200 198 195 195
85 210 222 223 236 134 201 212 236 266 290 270 271 272 277 243 271 266 294 321 295 192 290 271 285 280 281 285 283 287 286 279 283 283 267 268 269 266 270 276 276 276 296 309 308 303 302 316 323 327 332 345 316 295 242 224 223 217 214 207 218 192 187 194 194 192 190 189 191 188 198 194 200 200 201 211 209 211 209 208 206 202 200 199 196 192
206 221 228 230 217 96 139 194 210 214 241 246 238 268 292 264 265 283 269 10 140 311 264 256 288 288 289 286 286 278 270 273 282 260 263 266 270 272 266 270 283 298 295 307 288 298 306 317 321 328 324 329 313 286 279 261 259 237 219 217 216 195 188 201 199 191 198 202 202 194 195 192 205 214 207 203 206 203 205 204 199 194 191 191 193 191
264 242 239 238 156 204 247 139 191 228 241 238 239 237 243 261 343 305 250 349 331 6 297 309 297 287 280 275 279 279 252 259 261 256 249 237 250 251 259 265 284 287 290 297 303 302 306 311 305 319 323 322 321 309 312 301 270 258 236 224 215 206 194 196 200 200 207 203 202 204 199 211 193 194 202 202 159 182 199 216 200 201 198 196 198 195
211 188 253 209 200 181 215 197 165 201 248 212 221 238 263 250 240 226 282 334 308 285 270 309 291 284 259 287 317 304 263 259 266 272 271 269 247 265 288 291 243 256 271 287 302 306 315 322 315 304 294 307 302 303 295 290 270 253 255 241 224 214 202 199 196 199 200 190 173 168 86 90 83 44 132 164 194 189 199 208 204 208 201 202 202 198
260 250 99 123 182 185 203 231 209 183 254 150 214 215 236 252 263 254 285 357 339 319 357 8 331 290 273 244 266 286 323 306 305 318 293 273 279 280 265 257 280 265 245 245 268 280 291 290 301 307 303 303 302 291 274 272 274 264 267 259 248 236 221 209 201 197 184 182 180 165 171 170 181 205 182 193 200 199 199 207 209 211 205 199 199 195
241 181 193 196 167 176 204 228 216 178 246 342 259 199 229 237 246 269 286 5 286 222 270 48 72 287 132 296 288 286 279 276 294 288 283 286 277 277 253 257 257 263 289 276 258 277 302 303 315 311 305 296 302 286 300 303 286 276 267 263 251 236 229 223 212 193 180 180 183 187 192 196 195 200 213 209 211 207 212 206 203 203 196 197 194 196
149 226 214 193 153 164 172 243 210 168 188 253 247 180 207 223 227 243 241 209 258 272 280 184 179 269 295 206 250 279 284 283 289 282 283 276 266 265 261 257 251 254 247 268 296 297 281 277 273 287 296 298 274 282 299 291 303 306 297 280 255 237 229 226 218 194 192 187 189 192 200 201 203 203 213 209 214 211 208 206 207 192 198 197 198 198
159 190 186 194 191 189 227 213 134 166 165 222 173 150 170 194 206 213 183 235 240 2 302 177 121 320 262 271 283 255 293 286 274 282 285 287 285 268 271 272 265 258 264 261 282 287 291 294 296 285 293 290 285 275 276 297 303 304 306 295 260 247 241 229 197 194 201 201 193 195 197 205 213 208 215 206 207 211 209 206 206 197 198 200 203 202
319 177 207 184 164 221 204 139 160 165 201 258 133 85 93 90 76 161 151 135 312 36 265 168 187 185 278 263 257 312 236 285 272 288 290 275 271 268 274 280 281 293 291 269 243 268 284 281 279 276 280 294 292 297 287 290 303 302 320 331 342 313 258 257 224 191 199 204 193 196 200 206 212 212 227 201 191 192 179 204 206 204 201 200 202 205
169 277 166 137 212 208 161 205 165 181 185 117 120 141 358 40 44 21 74 76 332 238 263 182 202 171 282 262 218 176 217 203 282 303 294 313 312 277 250 245 268 284 293 293 299 283 274 279 275 294 298 296 315 320 313 316 327 320 328 330 341 332 339 40 219 227 204 196 194 203 204 205 211 208 206 210 222 192 177 196 205 199 206 199 204 199
276 252 236 244 122 112 112 102 10 219 135 123 93 140 32 285 21 32 335 43 189 270 270 232 191 179 207 285 280 241 287 259 217 257 277 302 294 287 291 280 260 254 265 290 296 300 316 328 324 332 334 334 320 329 349 340 332 343 329 331 357 351 4 355 90 165 227 207 208 210 207 212 220 207 201 203 210 202 202 202 203 198 187 196 201 201
241 231 226 272 207 152 154 109 331 79 164 115 120 66 118 262 36 334 27 241 205 231 281 55 140 51 238 250 307 299 279 270 222 226 245 254 271 277 275 270 263 263 281 283 279 292 305 301 303 322 320 330 335 330 321 322 314 302 313 327 345 336 358 0 348 187 195 188 213 215 215 220 217 217 214 212 214 204 204 208 213 185 195 187 191 200
275 253 202 216 42 207 143 176 199 195 188 156 172 167 99 195 149 266 266 281 311 291 259 163 353 271 293 284 235 243 262 264 270 260 252 244 242 241 249 266 290 293 278 269 275 281 274 275 288 293 296 304 310 318 320 322 330 315 294 308 334 305 315 325 110 141 190 244 230 209 215 220 211 218 211 220 220 216 202 192 200 195 196 196 200 196
342 320 245 135 230 177 180 206 189 152 155 192 110 160 180 145 162 213 204 208 217 227 303 269 112 236 114 245 250 232 263 285 270 260 268 263 253 258 259 266 277 283 275 256 272 271 274 282 280 296 308 309 309 315 321 323 335 333 331 343 331 323 324 4 356 151 177 211 237 256 235 218 216 224 215 218 214 213 205 204 200 202 199 201 205 203
212 234 252 178 330 157 187 198 108 102 90 188 168 63 90 225 126 200 207 179 278 335 338 225 208 207 204 270 296 263 260 260 263 280 275 267 251 242 263 254 248 253 262 271 274 287 281 267 293 309 317 315 321 323 324 333 339 346 338 328 307 280 292 310 319 270 209 221 222 211 223 236 225 225 227 231 214 207 194 201 200 207 202 206 203 204
284 272 237 188 69 178 189 142 190 148 199 200 117 204 205 135 157 288 352 108 68 17 250 153 294 271 296 281 262 282 307 287 288 257 250 247 236 233 237 235 244 252 263 270 255 258 293 314 324 341 329 327 337 343 345 336 336 333 336 343 338 336 325 317 304 288 221 209 183 244 221 210 209 217 217 217 220 212 200 194 199 201 205 196 188 192
177 242 309 155 221 255 54 202 176 223 137 108 185 229 77 122 107 140 215 329 54 209 272 94 227 293 345 288 327 327 351 294 275 251 252 265 305 260 245 237 243 250 249 261 276 262 263 284 303 328 335 340 337 336 339 342 343 344 356 359 346 343 342 333 325 306 288 247 215 215 230 239 226 211 213 218 224 221 204 205 200 202 196 199 196 190
109 292 230 236 90 6 37 99 29 308 151 149 185 222 130 239 247 289 92 261 254 250 263 285 223 252 224 255 263 288 309 296 284 320 323 274 265 249 250 235 234 245 258 268 265 277 311 354 333 334 343 340 346 347 342 335 342 354 11 10 16 356 344 326 321 310 298 269 236 220 217 208 223 236 234 222 215 206 212 213 203 196 206 204 199 189
27 228 305 284 136 241 60 151 198 177 272 90 51 315 192 94 189 140 196 202 137 272 325 276 264 268 214 223 179 206 218 240 272 291 261 242 238 236 237 232 223 231 234 240 254 259 321 318 319 337 4 354 346 345 345 345 350 5 359 2 3 357 3 357 354 343 326 306 278 262 255 257 222 214 216 230 210 202 211 221 208 207 201 209 196 201
266 146 263 90 317 82 184 202 198 160 181 211 169 248 260 194 230 122 309 156 195 192 215 272 277 257 249 179 177 204 215 232 222 254 274 256 246 244 245 239 230 228 226 229 241 283 309 307 309 343 9 359 330 327 342 3 1 353 355 1 1 1 355 359 349 343 332 323 310 287 258 255 246 247 226 222 222 225 222 217 217 213 213 184 201 195
243 253 240 119 325 225 237 207 187 187 182 183 184 203 197 167 188 222 251 124 174 201 229 207 251 277 264 151 201 193 231 215 233 210 256 272 273 248 245 242 230 233 229 230 250 267 275 292 314 326 8 14 6 358 356 351 352 4 9 358 350 356 6 353 351 347 332 328 320 317 304 289 283 266 247 217 216 223 232 234 218 213 189 197 211 186
192 146 261 230 226 226 221 240 270 258 236 219 193 211 190 195 182 194 238 221 66 269 114 175 274 261 267 148 191 197 213 219 224 192 250 270 270 275 258 247 240 223 239 248 268 259 240 258 304 1 30 18 359 349 347 351 356 350 350 356 358 1 356 352 341 335 338 340 359 358 344 345 339 324 264 245 248 230 233 232 229 203 195 209 210 204
147 242 241 261 273 306 300 296 317 101 200 259 265 125 140 201 206 217 231 161 181 183 206 233 237 257 268 144 188 202 217 235 259 211 246 261 272 279 262 260 239 224 210 210 201 230 284 270 242 46 27 9 3 357 356 351 347 349 352 355 352 359 351 352 353 348 2 9 21 22 21 15 355 349 351 287 251 250 263 267 258 227 207 206 185 198
184 196 213 254 262 333 307 5 290 326 124 213 210 211 213 224 228 245 59 27 234 198 214 204 240 247 267 272 177 206 210 235 242 249 204 254 276 261 243 231 233 240 232 197 191 189 253 301 18 32 31 20 355 352 353 355 354 350 351 356 355 350 347 350 352 359 4 10 18 21 24 18 10 4 354 347 326 288 257 238 247 255 239 205 195 196
225 201 185 233 223 230 235 229 231 217 210 209 319 235 225 210 219 210 242 211 242 214 226 230 254 254 269 273 257 217 256 276 260 249 245 219 244 279 295 272 250 237 244 253 222 195 212 270 65 53 36 18 4 355 352 354 353 352 354 358 355 350 350 354 354 3 8 14 18 17 18 13 11 6 355 346 343 335 317 289 237 230 250 234 221 197
304 306 221 223 229 231 232 245 263 97 99 190 208 212 218 214 214 220 230 233 231 236 235 233 243 257 258 267 271 262 206 242 250 244 238 252 266 261 254 256 251 238 206 192 201 227 324 277 319 79 52 20 3 358 358 356 356 358 357 356 359 356 351 352 357 4 10 13 18 13 13 11 10 0 353 349 342 340 343 344 332 281 255 240 218 197
203 252 264 264 252 253 257 258 256 160 178 206 206 215 214 212 202 205 212 233 232 247 247 225 239 245 249 263 270 277 269 246 239 243 265 271 263 257 229 244 354 148 165 141 161 211 229 254 288 41 33 22 7 359 2 2 3 3 2 358 355 353 355 356 1 10 17 18 20 17 5 1 354 355 353 346 351 350 353 353 353 350 326 312 215 205
226 244 246 264 269 273 267 268 277 277 251 235 223 216 215 216 209 211 221 229 225 228 242 228 234 244 250 251 264 266 265 263 240 241 227 243 256 275 153 212 217 216 203 199 202 194 196 211 229 11 43 25 17 13 2 359 1 7 9 13 3 356 359 354 359 15 22 25 24 17 9 0 1 355 358 3 6 6 2 3 360 2 12 19 3 343
285 229 253 251 267 267 268 270 271 268 278 276 256 237 231 217 224 221 226 225 227 236 239 242 240 245 242 243 245 255 261 272 260 211 228 234 228 220 220 221 217 212 205 207 203 196 191 185 161 87 63 36 27 13 7 1 3 8 8 9 6 2 1 355 358 18 24 30 23 13 8 7 9 13 14 19 19 12 3 0 3 11 20 16 5 9
275 297 312 293 284 272 269 266 259 260 257 260 266 268 258 243 240 231 231 232 236 246 247 249 246 248 242 249 252 254 261 339 107 217 224 227 227 221 219 225 226 216 214 209 199 197 179 157 123 91 64 47 30 17 8 1 357 6 13 13 10 9 0 1 11 20 27 29 19 9 354 353 6 5 21 19 19 14 14 12 10 20 21 20 15 12
311 318 346 318 298 292 292 286 278 276 270 261 257 255 260 257 253 242 241 232 235 243 241 245 247 248 247 247 254 261 273 274 271 252 228 233 232 227 227 231 229 225 210 205 201 183 175 151 113 81 70 52 37 23 13 3 359 14 14 11 12 10 357 6 14 20 24 22 13 9 1 357 356 6 11 12 14 16 14 12 14 25 28 25 22 11
278 296 287 292 288 276 291 285 297 298 299 280 266 250 251 252 249 248 244 238 234 239 244 243 246 241 247 250 262 262 260 260 263 265 253 239 241 232 230 234 233 224 211 199 196 185 154 125 99 89 66 49 34 26 6 2 13 23 5 0 3 10 12 14 21 25 25 18 16 9 359 352 354 360 7 11 11 11 19 21 26 24 26 31 21 33
260 257 270 267 268 280 295 294 297 288 260 248 299 260 256 262 263 255 250 245 242 223 241 239 253 258 257 248 244 253 256 256 255 260 258 236 235 245 245 241 237 222 201 181 155 131 113 99 95 78 71 55 36 22 12 10 23 10 10 2 357 11 19 16 20 34 28 19 13 4 1 356 351 355 355 359 6 17 29 29 28 28 32 37 40 48
262 263 264 256 264 286 290 288 285 252 265 252 202 233 206 258 281 277 282 272 270 262 255 259 263 260 256 256 252 252 255 264 267 263 255 237 233 238 245 250 242 207 178 144 120 111 105 104 94 85 61 44 33 22 22 20 25 18 26 16 5 4 6 8 23 32 30 20 9 3 1 356 353 355 348 350 0 20 34 37 26 29 30 37 40 42
231 244 252 249 255 276 256 246 261 254 320 134 276 295 292 289 276 283 278 271 292 334 344 325 328 334 342 333 332 334 330 316 307 280 261 282 34 313 293 292 287 116 125 128 124 100 100 91 85 78 68 52 37 25 23 15 25 34 31 23 16 4 1 12 31 27 15 21 10 2 357 353 349 353 350 346 353 17 32 30 29 26 20 43 48 48
226 233 230 255 217 252 245 255 258 302 292 274 281 284 38 285 354 104 275 300 50 7 10 344 343 341 346 336 326 338 324 316 283 275 35 11 3 13 19 31 48 62 71 68 73 82 80 80 78 72 69 58 42 29 8 15 33 38 39 31 14 9 358 12 31 26 8 8 10 0 355 351 350 350 355 348 343 6 28 34 28 23 11 40 46 48
220 225 218 237 228 229 258 257 263 266 261 271 265 22 196 197 249 265 72 242 59 16 350 6 348 341 343 331 341 329 323 309 282 267 12 352 12 13 31 37 39 45 50 57 60 62 60 61 64 55 53 49 40 27 6 28 36 43 44 33 18 16 358 10 25 16 6 355 2 358 356 351 350 349 356 360 348 349 11 22 32 30 15 31 40 49
227 226 232 234 249 238 245 251 247 258 269 88 298 301 327 254 231 226 122 265 61 2 349 14 346 346 351 334 331 334 354 289 264 48 351 1 355 8 16 29 33 33 41 43 45 53 51 50 53 51 47 39 31 15 1 24 43 44 44 32 23 18 4 3 13 7 357 345 349 354 359 351 348 353 357 2 356 350 1 14 23 30 26 27 35 41
251 243 241 235 239 230 250 250 250 247 235 48 317 300 300 324 206 185 244 254 75 11 341 21 337 349 341 352 348 24 23 300 338 349 351 352 1 8 19 16 23 24 25 29 39 44 43 44 44 40 37 32 19 8 0 16 48 48 43 33 26 20 5 353 353 346 346 338 348 351 1 359 352 352 359 0 358 2 359 351 10 29 34 30 28 32
225 233 219 254 258 261 252 253 260 251 141 169 327 293 301 280 127 235 262 6 4 4 352 9 352 339 348 351 15 38 24 14 320 335 354 356 6 11 14 20 21 26 24 21 19 29 39 40 46 44 36 29 17 10 6 14 40 41 35 28 24 12 354 339 343 352 346 338 350 351 358 9 360 351 350 356 348 355 12 5 7 18 34 37 31 33
255 213 268 234 257 262 268 271 272 298 171 262 260 242 277 349 333 274 61 17 319 334 9 354 356 346 341 350 349 11 336 3 358 2 6 6 9 7 11 12 15 15 19 17 21 21 26 35 38 39 35 28 21 15 11 18 33 33 23 20 12 351 338 332 341 351 349 352 354 349 351 11 13 354 345 344 349 5 20 9 8 10 24 42 45 40
216 249 243 259 246 289 50 275 269 260 165 44 297 305 349 61 281 41 326 340 334 13 349 349 356 356 352 331 336 330 345 348 9 0 4 11 17 17 14 14 15 14 9 11 11 16 21 25 31 34 36 25 23 19 14 23 29 29 21 17 359 339 334 332 338 346 357 1 356 348 348 359 17 4 359 354 352 4 22 17 25 23 17 22 43 54
261 42 247 240 206 230 257 222 214 338 338 340 17 331 14 33 2 1 355 332 352 5 353 340 349 355 350 336 325 325 330 346 347 356 352 7 5 8 17 24 24 17 14 10 11 6 15 19 29 33 36 32 24 26 19 25 26 23 21 7 352 336 332 333 337 349 2 2 354 347 343 359 9 7 2 2 0 5 19 15 11 31 37 23 29 40
241 166 293 234 290 128 242 279 42 53 47 31 44 53 53 33 25 6 8 343 340 356 344 348 336 346 345 338 328 324 346 341 353 351 10 358 6 1 1 5 9 14 13 10 4 5 3 13 12 24 29 33 27 24 26 23 27 18 16 359 347 340 334 331 336 359 7 358 349 345 347 6 9 5 7 8 10 10 12 13 14 32 32 30 35 36
11 177 245 69 279 247 69 68 99 72 69 64 67 63 45 29 15 20 1 343 353 347 347 337 336 334 339 342 349 331 354 350 352 352 1 2 4 3 358 358 359 2 4 7 6 3 4 8 13 15 15 18 25 16 19 21 29 25 4 354 344 338 330 326 332 351 4 358 356 354 354 11 13 2 360 6 17 14 16 12 11 20 22 25 30 28
339 21 20 253 288 347 276 72 61 83 89 89 81 70 72 48 23 6 21 345 345 342 333 343 333 343 333 348 350 343 345 4 357 352 357 358 2 354 358 354 355 356 358 4 1 357 354 5 9 13 6 6 13 9 5 12 22 20 3 352 351 339 335 320 329 342 354 1 1 355 11 11 19 3 356 13 15 15 16 18 19 14 24 20 20 17
295 42 16 232 259 223 285 72 5 88 118 108 76 50 12 14 6 8 13 0 342 347 336 332 342 342 353 354 349 349 344 1 8 350 357 354 358 351 350 352 350 353 352 359 356 356 351 2 1 4 3 360 4 352 357 355 6 3 357 358 355 350 338 326 330 334 340 352 1 357 13 4 15 9 4 16 10 10 16 21 17 13 27 15 10 5
279 17 231 7 316 263 111 37 357 183 113 83 77 67 44 355 357 347 3 9 342 356 340 345 348 348 7 348 350 346 346 349 358 347 343 345 353 353 348 345 346 343 345 346 352 354 355 355 355 351 354 351 353 340 343 343 347 354 352 4 356 0 345 334 330 330 341 349 356 9 11 9 3 12 11 11 6 11 19 13 16 15 14 26 16 15
14 249 348 13 298 276 277 293 353 346 290 159 19 51 5 348 14 345 351 357 351 348 342 342 335 345 351 2 0 343 340 325 333 330 327 329 340 340 344 343 339 338 335 337 345 349 353 351 355 345 345 337 347 331 332 331 338 346 350 4 0 3 354 341 327 337 342 350 342 2 4 6 2 9 13 13 8 0 2 18 17 17 17 10 13 13
185 317 62 224 214 265 92 242 21 289 292 279 266 330 18 332 17 347 341 349 343 342 326 339 327 328 337 334 347 355 327 326 314 324 315 320 328 339 336 339 336 335 332 334 341 346 348 345 344 343 337 335 334 329 327 330 331 342 345 2 3 6 356 347 335 334 337 349 348 1 2 359 0 3 11 7 7 6 357 350 5 17 17 16 8 3